TimeMST,TemperatureF,Dew PointF,Humidity,Sea Level PressureIn,VisibilityMPH,Wind Direction,Wind SpeedMPH,Gust SpeedMPH,PrecipitationIn,Events,Conditions,WindDirDegrees,DateUTC
12:15 AM,59.9,46.9,62,29.75,10.0,South,9.2,23.0,N/A,,Clear,190,2014-01-05 07:15:00
12:35 AM,59.4,46.8,63,29.75,10.0,SSW,8.1,21.9,N/A,,Clear,200,2014-01-05 07:35:00
12:55 AM,58.5,46.6,65,29.77,10.0,Calm,Calm,-,N/A,,Clear,0,2014-01-05 07:55:00
1:15 AM,59.2,46.4,63,29.77,10.0,South,5.8,-,N/A,,Clear,190,2014-01-05 08:15:00
1:35 AM,59.2,46.0,62,29.76,10.0,South,5.8,-,N/A,,Clear,190,2014-01-05 08:35:00
1:55 AM,59.5,46.0,61,29.76,10.0,SW,5.8,-,N/A,,Clear,230,2014-01-05 08:55:00
2:15 AM,59.0,45.7,61,29.80,10.0,North,11.5,21.9,N/A,,Clear,350,2014-01-05 09:15:00
2:35 AM,59.5,45.1,59,29.83,10.0,WNW,5.8,-,N/A,,Clear,290,2014-01-05 09:35:00
2:55 AM,57.2,44.6,63,29.84,10.0,NNW,6.9,-,N/A,,Clear,330,2014-01-05 09:55:00
3:15 AM,54.5,42.4,64,29.87,10.0,North,12.7,23.0,N/A,,Scattered Clouds,360,2014-01-05 10:15:00
3:35 AM,47.5,34.9,62,29.90,10.0,NNW,13.8,19.6,N/A,,Scattered Clouds,340,2014-01-05 10:35:00
3:55 AM,43.9,31.3,61,29.93,10.0,NNW,11.5,21.9,N/A,,Clear,340,2014-01-05 10:55:00
4:15 AM,41.4,30.2,65,29.96,10.0,NNW,17.3,25.3,N/A,,Clear,340,2014-01-05 11:15:00
4:35 AM,39.2,28.4,65,29.98,10.0,NNW,13.8,25.3,N/A,,Clear,340,2014-01-05 11:35:00
4:55 AM,38.3,28.2,67,30.00,10.0,NNW,16.1,23.0,N/A,,Clear,330,2014-01-05 11:55:00
5:15 AM,37.4,27.5,67,30.01,10.0,NNW,15.0,24.2,N/A,,Scattered Clouds,330,2014-01-05 12:15:00
5:35 AM,36.5,26.6,67,30.03,10.0,NNW,13.8,18.4,N/A,,Scattered Clouds,330,2014-01-05 12:35:00
5:55 AM,35.4,25.7,68,30.05,10.0,NW,12.7,23.0,N/A,,Clear,320,2014-01-05 12:55:00
6:15 AM,34.7,25.0,68,30.06,10.0,NW,11.5,20.7,N/A,,Clear,320,2014-01-05 13:15:00
6:35 AM,34.3,23.9,66,30.08,10.0,NNW,12.7,17.3,N/A,,Clear,330,2014-01-05 13:35:00
6:55 AM,34.5,23.9,65,30.09,10.0,NW,15.0,20.7,N/A,,Clear,320,2014-01-05 13:55:00
7:15 AM,34.7,23.9,65,30.11,10.0,NNW,15.0,18.4,N/A,,Clear,330,2014-01-05 14:15:00
7:35 AM,35.1,24.3,65,30.12,10.0,NW,11.5,23.0,N/A,,Clear,320,2014-01-05 14:35:00
7:55 AM,36.0,24.4,63,30.13,10.0,NNW,16.1,21.9,N/A,,Clear,330,2014-01-05 14:55:00
8:15 AM,36.5,24.3,61,30.14,10.0,NW,15.0,23.0,N/A,,Clear,320,2014-01-05 15:15:00
8:35 AM,38.1,24.3,57,30.16,10.0,NW,18.4,26.5,N/A,,Clear,320,2014-01-05 15:35:00
8:55 AM,38.3,23.0,54,30.17,10.0,NNW,19.6,27.6,N/A,,Clear,340,2014-01-05 15:55:00
9:15 AM,39.0,23.0,53,30.18,10.0,NNW,17.3,28.8,N/A,,Clear,340,2014-01-05 16:15:00
9:35 AM,39.4,22.1,50,30.18,10.0,NNW,20.7,28.8,N/A,,Clear,330,2014-01-05 16:35:00
9:55 AM,39.2,22.3,51,30.17,10.0,NNW,19.6,29.9,N/A,,Clear,340,2014-01-05 16:55:00
10:15 AM,40.1,22.5,49,30.18,10.0,NNW,19.6,31.1,N/A,,Clear,330,2014-01-05 17:15:00
10:35 AM,40.6,22.5,48,30.17,10.0,NNW,18.4,27.6,N/A,,Clear,340,2014-01-05 17:35:00
10:55 AM,40.6,22.3,48,30.18,10.0,NNW,17.3,24.2,N/A,,Clear,330,2014-01-05 17:55:00
11:15 AM,41.4,22.5,47,30.19,10.0,NW,15.0,24.2,N/A,,Clear,320,2014-01-05 18:15:00
11:35 AM,41.5,21.0,44,30.18,10.0,NNW,15.0,28.8,N/A,,Clear,330,2014-01-05 18:35:00
11:55 AM,42.6,21.2,43,30.18,10.0,NNW,16.1,24.2,N/A,,Clear,330,2014-01-05 18:55:00
12:15 PM,43.9,21.7,41,30.16,10.0,NNW,19.6,24.2,N/A,,Clear,330,2014-01-05 19:15:00
12:35 PM,44.4,21.7,41,30.16,10.0,NNW,15.0,28.8,N/A,,Clear,340,2014-01-05 19:35:00
12:55 PM,45.0,21.2,39,30.17,10.0,North,15.0,24.2,N/A,,Clear,350,2014-01-05 19:55:00
1:15 PM,46.0,21.0,37,30.17,10.0,North,17.3,24.2,N/A,,Clear,360,2014-01-05 20:15:00
1:35 PM,45.9,19.9,36,30.17,10.0,NNW,12.7,23.0,N/A,,Clear,340,2014-01-05 20:35:00
1:55 PM,45.7,20.1,36,30.18,10.0,NNW,16.1,24.2,N/A,,Clear,340,2014-01-05 20:55:00
2:15 PM,45.7,20.3,37,30.18,10.0,NNW,15.0,21.9,N/A,,Clear,340,2014-01-05 21:15:00
2:35 PM,45.9,20.1,36,30.20,10.0,NNW,18.4,21.9,N/A,,Clear,330,2014-01-05 21:35:00
2:55 PM,44.8,19.6,37,30.20,10.0,NNW,11.5,20.7,N/A,,Clear,340,2014-01-05 21:55:00
3:15 PM,44.2,19.9,38,30.21,10.0,NNW,16.1,20.7,N/A,,Clear,340,2014-01-05 22:15:00
3:35 PM,44.2,19.6,37,30.22,10.0,North,10.4,20.7,N/A,,Clear,360,2014-01-05 22:35:00
3:55 PM,42.3,19.2,40,30.24,10.0,North,11.5,21.9,N/A,,Clear,350,2014-01-05 22:55:00
4:15 PM,41.0,18.5,40,30.26,10.0,North,13.8,21.9,N/A,,Clear,350,2014-01-05 23:15:00
4:35 PM,40.1,19.2,43,30.26,10.0,NNW,10.4,-,N/A,,Clear,340,2014-01-05 23:35:00
4:55 PM,39.4,18.5,43,30.27,10.0,NNW,9.2,-,N/A,,Clear,340,2014-01-05 23:55:00
5:15 PM,39.2,18.3,43,30.28,10.0,NNW,10.4,17.3,N/A,,Clear,340,2014-01-06 00:15:00
5:35 PM,38.8,18.0,43,30.29,10.0,NNW,12.7,19.6,N/A,,Clear,340,2014-01-06 00:35:00
5:55 PM,38.3,18.3,45,30.30,10.0,North,8.1,-,N/A,,Clear,350,2014-01-06 00:55:00
6:15 PM,38.1,18.5,45,30.32,10.0,NNW,8.1,-,N/A,,Clear,340,2014-01-06 01:15:00
6:35 PM,37.8,18.9,47,30.33,10.0,NNW,6.9,-,N/A,,Clear,330,2014-01-06 01:35:00
6:55 PM,37.0,19.2,49,30.34,10.0,North,8.1,-,N/A,,Clear,350,2014-01-06 01:55:00
7:15 PM,36.7,18.9,49,30.35,10.0,NNW,5.8,-,N/A,,Clear,340,2014-01-06 02:15:00
7:35 PM,36.5,18.3,48,30.36,10.0,NNW,8.1,16.1,N/A,,Clear,340,2014-01-06 02:35:00
7:55 PM,36.0,18.0,48,30.37,10.0,North,11.5,16.1,N/A,,Clear,350,2014-01-06 02:55:00
8:15 PM,36.0,16.0,44,30.38,10.0,North,9.2,17.3,N/A,,Clear,360,2014-01-06 03:15:00
8:35 PM,35.2,16.0,45,30.39,10.0,North,10.4,18.4,N/A,,Clear,350,2014-01-06 03:35:00
8:55 PM,34.3,15.8,47,30.40,10.0,North,8.1,18.4,N/A,,Clear,360,2014-01-06 03:55:00
9:15 PM,33.8,14.9,46,30.41,10.0,North,9.2,-,N/A,,Clear,10,2014-01-06 04:15:00
9:35 PM,32.9,14.7,47,30.42,10.0,NNE,8.1,-,N/A,,Clear,20,2014-01-06 04:35:00